Location: Sebastopol
(38.4021°N, 122.8239°W)
Time: 15:38:37
(UTC+00:00)

SL-16 R/B - Pass Details

Date: 29 October 2020
Orbit: 842 x 846 km, 71.0° (Epoch: 01 December)

Event Time Altitude Azimuth Distance (km) Brightness Sun altitude
Rises 14:00:08 0° 338° (NNW) 3,412 5.0 -7.5°
Reaches altitude 10° 14:02:36 10° 339° (NNW) 2,473 4.3 -7.0°
Maximum altitude 14:08:17 83° 67° (ENE) 856 2.4 -5.9°
Drops below altitude 10° 14:13:57 10° 156° (SSE) 2,459 5.2 -4.8°
Sets 14:16:23 0° 157° (SSE) 3,390 5.9 -4.4°
